Location: Los Gatos B&B
(42.6926°N, 77.0646°W)
Time: 03:21:52
(UTC-04:00)

Cosmos 2263 Rocket - Visible Passes

Search period start: 29 August 2015 00:00
Search period end: 08 September 2015 00:00
Orbit: 822 x 850 km, 71.0° (Epoch: 28 August)

Date Brightness Start Highest point End Pass type
(mag) Time Alt. Az. Time Alt. Az. Time Alt. Az.
29 Aug 4.2 00:56:29 10° N 01:00:20 21° NE 01:00:20 21° NE visible
29 Aug 3.8 02:39:34 10° NNW 02:41:59 26° NW 02:41:59 26° NW visible
30 Aug 4.3 00:39:55 10° N 00:43:28 20° NE 00:43:28 20° NE visible
30 Aug 4.0 02:22:53 10° NNW 02:25:08 25° NNW 02:25:08 25° NNW visible
31 Aug 4.4 00:23:22 10° N 00:26:41 18° NE 00:26:41 18° NE visible
31 Aug 4.1 02:06:12 10° NNW 02:08:20 24° NNW 02:08:20 24° NNW visible
01 Sep 4.4 00:06:49 10° N 00:09:56 17° NE 00:09:56 17° NE visible
01 Sep 4.1 01:49:32 10° NNW 01:51:35 23° NNW 01:51:35 23° NNW visible
01 Sep 4.4 23:50:18 10° N 23:53:15 16° NE 23:53:15 16° NE visible
02 Sep 4.2 01:32:52 10° NNW 01:34:55 23° NNW 01:34:55 23° NNW visible
02 Sep 4.5 23:33:48 10° N 23:36:35 15° NE 23:36:35 15° NE visible
03 Sep 4.2 01:16:12 10° NNW 01:18:15 23° NNW 01:18:15 23° NNW visible
03 Sep 4.5 23:17:18 10° NNE 23:19:58 14° NE 23:19:58 14° NE visible
04 Sep 4.2 00:59:32 10° NNW 01:01:39 23° NNW 01:01:39 23° NNW visible
04 Sep 4.5 23:00:50 10° NNE 23:03:23 13° NE 23:03:23 13° NE visible
05 Sep 4.2 00:42:53 10° NNW 00:45:04 24° NNW 00:45:04 24° NNW visible
05 Sep 4.5 22:44:25 10° NNE 22:46:41 13° NE 22:46:50 13° NE visible
06 Sep 4.2 00:26:14 10° NNW 00:28:31 25° NNW 00:28:31 25° NNW visible
06 Sep 4.5 22:28:03 10° NNE 22:29:55 12° NE 22:30:19 12° NE visible
07 Sep 4.1 00:09:35 10° NNW 00:11:59 25° N 00:11:59 25° N visible
07 Sep 4.5 22:11:48 10° NNE 22:13:09 11° NE 22:13:49 11° NE visible
